Aruba, Aruba

8:21 AM AST on September 25, 2016 (GMT -0400)
Aruba

Weather History for 78982 - November, 2013

Change the Weather History Date:

Tuesday, November 12, 2013

  Actual Average Record
Temperature  
Mean Temperature 86 °F -  
Max Temperature 91 °F - - ()
Min Temperature 81 °F - - ()
Cooling Degree Days 21    
Growing Degree Days 36 (Base 50)    
Moisture  
Dew Point 76 °F    
Average Humidity 74    
Maximum Humidity 84    
Minimum Humidity 60    
Precipitation  
Precipitation 0.00 in - - ()
Sea Level Pressure  
Sea Level Pressure 29.82 in    
Wind  
Wind Speed 19 mph ()    
Max Wind Speed 89 mph    
Max Gust Speed 36 mph    
Visibility 9.0 miles    
Events      
T = Trace of Precipitation, MM = Missing Value Source: Averaged Metar Reports

Daily Weather History Graph

Daily Weather History Graph

Search for Another Location

Airport or City:

Trip Planner

Search our weather history database for the weather conditions in past years. The results will help you decide how hot, cold, wet, or windy it might be!

Date:

Astronomy

Nov. 12, 2013 Rise Set
Actual Time 6:36 AM AST 6:11 PM AST
Civil Twilight 6:14 AM AST 6:33 PM AST
Nautical Twilight 5:49 AM AST 6:59 PM AST
Astronomical Twilight 5:23 AM AST 7:24 PM AST
Moon 2:39 PM AST (11/12) 2:13 AM AST (11/12)
Length of Visible Light 12h 18m
Length of Day
11h 34m
Waxing Gibbous, 75% of the Moon is Illuminated
Nov 12
Waxing Gibbous
Nov 17
Full
Nov 25
Last Quarter
Dec 2
New
Dec 9
First Quarter

Hourly Weather History & Observations

Time (AST) Temp. Heat Index Dew Point Humidity Pressure Visibility Wind Dir Wind Speed Gust Speed Precip Events Conditions
1:00 AM 82.4 °F 89.5 °F 75.2 °F 79% 29.86 in 6.2 mi East 15.0 mph - N/A   Partly Cloudy
2:00 AM 82 °F - 75 °F 75% 29.84 in 16 mi East 17.3 mph - -   Scattered Clouds
2:00 AM 82.4 °F 89.5 °F 75.2 °F 79% 29.83 in 6.2 mi East 17.3 mph - N/A   Partly Cloudy
3:00 AM 82.4 °F 89.5 °F 75.2 °F 79% 29.80 in 6.2 mi East 18.4 mph - N/A   Partly Cloudy
4:00 AM 82.4 °F 89.5 °F 75.2 °F 79% 29.80 in 6.2 mi East 6.9 mph - N/A   Partly Cloudy
5:00 AM - - 76 °F % 29.82 in 16 mi NNE 88.6 mph - -   Scattered Clouds
5:00 AM 82.4 °F 89.5 °F 75.2 °F 79% 29.80 in 6.2 mi East 15.0 mph - N/A   Partly Cloudy
6:00 AM 82.4 °F 89.5 °F 75.2 °F 79% 29.83 in 6.2 mi East 13.8 mph - N/A   Scattered Clouds
7:00 AM 82.4 °F 89.5 °F 75.2 °F 79% 29.83 in 6.2 mi East 13.8 mph - N/A   Scattered Clouds
8:00 AM 84 °F - 76 °F 71% 29.86 in 16 mi East 20.7 mph - -   Partly Cloudy
8:00 AM 84.2 °F 92.3 °F 75.2 °F 74% 29.86 in 6.2 mi East 20.7 mph - N/A   Scattered Clouds
9:00 AM 84.2 °F 94.1 °F 77.0 °F 79% 29.86 in 6.2 mi East 23.0 mph - N/A   Partly Cloudy
10:00 AM 87.8 °F 99.7 °F 77.0 °F 70% 29.86 in 6.2 mi East 25.3 mph - N/A   Scattered Clouds
11:00 AM 88 °F - 77 °F 63% 29.87 in 16 mi East 23.0 mph - -   Partly Cloudy
11:00 AM 87.8 °F 99.7 °F 77.0 °F 70% 29.86 in 6.2 mi North - - N/A   Scattered Clouds
12:00 PM 89.6 °F 102.2 °F 77.0 °F 66% 29.83 in 6.2 mi East 23.0 mph - N/A   Partly Cloudy
1:00 PM 89.6 °F 102.2 °F 77.0 °F 66% 29.80 in 6.2 mi East 24.2 mph 35.7 mph N/A   Partly Cloudy
2:00 PM 90 °F - 78 °F 60% 29.80 in 16 mi East 20.7 mph - -   Scattered Clouds
2:00 PM 89.6 °F 102.2 °F 77.0 °F 66% 29.80 in 6.2 mi East 20.7 mph - N/A   Partly Cloudy
3:00 PM 87.8 °F 99.7 °F 77.0 °F 70% 29.77 in 6.2 mi East 24.2 mph 35.7 mph N/A   Partly Cloudy
4:00 PM 87.8 °F 97.6 °F 75.2 °F 66% 29.77 in 6.2 mi East 20.7 mph - N/A   Partly Cloudy
5:00 PM 85 °F - 77 °F 71% 29.77 in 19 mi East 20.7 mph - -   Scattered Clouds
5:00 PM 86.0 °F 96.9 °F 77.0 °F 74% 29.77 in 6.2 mi East 20.7 mph - N/A   Partly Cloudy
6:00 PM 84.2 °F 94.1 °F 77.0 °F 79% 29.77 in 6.2 mi East 20.7 mph - N/A   Partly Cloudy
7:00 PM 84.2 °F 94.1 °F 77.0 °F 79% 29.77 in 6.2 mi ENE 18.4 mph - N/A   Partly Cloudy
8:00 PM 83 °F - 76 °F 74% 29.80 in 19 mi East 20.7 mph - -   Scattered Clouds
8:00 PM 84.2 °F 94.1 °F 77.0 °F 79% 29.77 in 6.2 mi ENE 18.4 mph - N/A   Partly Cloudy
9:00 PM 84.2 °F 92.3 °F 75.2 °F 74% 29.80 in 6.2 mi East 21.9 mph - N/A   Partly Cloudy
10:00 PM 82.4 °F 90.9 °F 77.0 °F 84% 29.83 in 6.2 mi ENE 20.7 mph - N/A   Partly Cloudy
11:00 PM 83 °F - 77 °F 77% 29.83 in 19 mi East 18.4 mph - -   Scattered Clouds
11:00 PM 82.4 °F 90.9 °F 77.0 °F 84% 29.83 in 6.2 mi East 18.4 mph - N/A   Partly Cloudy